Simultaneous Nadir Overpasses (SNOs) Predictions

Prediction of SNOs between GOES-14 and NOAA-20 Satellite Orbit:

Table of predicted SNOs for the next 14.0 days since TLE Epoch: 3/28/2020
Index Date Time (GOES-14) GOES-14 Lat,Lon NOAA-20 Lat,Lon Distance(km) Time Diff (sec)
1 03/29/2020 20:24:02 -0.13,-104.08 -0.18,-104.29 24.05 80
2 03/30/2020 20:02:37 -0.13,-104.07 0.84, -99.76 491.43 80
3 04/01/2020 08:24:25 0.13,-104.15 0.31,-105.04 101.07 80
4 04/02/2020 08:08:20 0.14,-104.15 -0.66,-100.50 415.60 80
5 04/03/2020 20:30:16 -0.13,-104.08 -0.52,-105.81 197.00 80
6 04/04/2020 20:08:52 -0.14,-104.07 0.50,-101.28 318.34 80
7 04/06/2020 08:30:39 0.14,-104.12 0.70,-106.55 276.53 80
8 04/07/2020 08:14:35 0.14,-104.13 -0.32,-102.02 240.23 80
9 04/08/2020 20:36:31 -0.13,-104.08 -0.86,-107.33 369.89 80
10 04/09/2020 20:15:06 -0.14,-104.07 0.17,-102.80 145.51 80




NCC Satellite Simultaneous Nadir Overpasses (SNOs) Prediction Service
